Weather History for KBPT - February, 2014

Change the Weather History Date:

Wednesday, February 5, 2014

  Actual Average Record
Temperature  
Mean Temperature 45 °F 54 °F  
Max Temperature 51 °F 64 °F 82 °F (1921)
Min Temperature 39 °F 45 °F 22 °F (2011)
Degree Days  
Heating Degree Days 20 11  
Month to date heating degree days 64 57  
Since 1 July heating degree days 1220 1000  
Cooling Degree Days 0 0  
Month to date cooling degree days 1 0  
Year to date cooling degree days 1 11  
Moisture  
Dew Point 35 °F    
Average Humidity 73    
Maximum Humidity 93    
Minimum Humidity 52    
Precipitation  
Precipitation 0.00 in 0.12 in 2.20 in (1955)
Month to date precipitation 0.50 0.68  
Year to date precipitation 1.77 5.94  
Snow  
Snow 0.00 in 0.00 in T in (1988)
Month to date snowfall 0.0 0.0  
Since 1 July snowfall 0.3 T  
Snow Depth 0.00 in    
Sea Level Pressure  
Sea Level Pressure 30.27 in    
Wind  
Wind Speed 15 mph (North)    
Max Wind Speed 24 mph    
Max Gust Speed 32 mph    
Visibility 10 miles    
Events      
T = Trace of Precipitation, MM = Missing Value Source: NWS Daily Summary

Daily Weather History Graph

Daily Weather History Graph

Search for Another Location

Airport or City:

Trip Planner

Search our weather history database for the weather conditions in past years. The results will help you decide how hot, cold, wet, or windy it might be!

Date:

Astronomy

Feb. 05, 2014 Rise Set
Actual Time 7:03 AM CST 5:56 PM CST
Civil Twilight 6:38 AM CST 6:21 PM CST
Nautical Twilight 6:10 AM CST 6:50 PM CST
Astronomical Twilight 5:42 AM CST 7:18 PM CST
Moon 10:49 AM CST (2/5) No Moon Set
Length of Visible Light 11h 42m
Length of Day
10h 53m
Waxing Crescent, 39% of the Moon is Illuminated
Feb 5
Waxing Crescent
Feb 6
First Quarter
Feb 14
Full
Feb 22
Last Quarter
Mar 1
New

Hourly Weather History & Observations

Time (CST) Temp. Windchill Dew Point Humidity Pressure Visibility Wind Dir Wind Speed Gust Speed Precip Events Conditions
12:53 AM 43.0 °F 37.2 °F 39.9 °F 89% 30.09 in 10.0 mi North 10.4 mph - N/A   Clear
1:53 AM 41.0 °F 37.1 °F 39.0 °F 93% 30.11 in 10.0 mi North 5.8 mph - N/A   Clear
2:53 AM 39.9 °F 35.8 °F 37.9 °F 93% 30.13 in 10.0 mi North 5.8 mph - N/A   Clear
3:53 AM 39.9 °F 35.1 °F 37.9 °F 93% 30.13 in 10.0 mi North 6.9 mph - N/A   Clear
4:53 AM 39.9 °F 34.5 °F 37.9 °F 93% 30.16 in 10.0 mi North 8.1 mph - N/A   Clear
5:53 AM 41.0 °F 34.7 °F 37.9 °F 89% 30.19 in 10.0 mi North 10.4 mph - N/A   Clear
6:53 AM 41.0 °F 35.2 °F 37.0 °F 86% 30.23 in 9.0 mi North 9.2 mph - N/A   Clear
7:53 AM 43.0 °F 34.2 °F 37.9 °F 82% 30.26 in 9.0 mi North 20.7 mph 25.3 mph N/A   Scattered Clouds
8:53 AM 45.0 °F 37.6 °F 39.0 °F 80% 30.32 in 10.0 mi North 17.3 mph - N/A   Clear
9:53 AM 46.0 °F 38.5 °F 37.0 °F 71% 30.33 in 10.0 mi North 19.6 mph - N/A   Mostly Cloudy
10:05 AM 44.1 °F 35.9 °F 36.0 °F 73% 30.33 in 10.0 mi North 19.6 mph 25.3 mph N/A   Mostly Cloudy
10:53 AM 44.1 °F 36.2 °F 37.0 °F 76% 30.34 in 10.0 mi NNW 18.4 mph 26.5 mph N/A   Overcast
11:53 AM 45.0 °F 37.9 °F 36.0 °F 71% 30.33 in 10.0 mi North 16.1 mph 25.3 mph N/A   Overcast
12:53 PM 46.0 °F 38.0 °F 36.0 °F 68% 30.28 in 10.0 mi North 21.9 mph 26.5 mph N/A   Overcast
1:35 PM 48.0 °F - 36.0 °F 63% 30.26 in 10.0 mi North 17.3 mph 28.8 mph N/A   Partly Cloudy
1:53 PM 48.0 °F - 34.0 °F 58% 30.26 in 10.0 mi North 24.2 mph 29.9 mph N/A   Clear
2:53 PM 50.0 °F - 34.0 °F 54% 30.26 in 10.0 mi North 21.9 mph 28.8 mph N/A   Clear
3:53 PM 50.0 °F - 33.1 °F 52% 30.26 in 10.0 mi North 19.6 mph - N/A   Clear
4:53 PM 48.9 °F - 32.0 °F 52% 30.27 in 10.0 mi NNE 17.3 mph 24.2 mph N/A   Clear
5:53 PM 45.0 °F 38.2 °F 32.0 °F 60% 30.29 in 10.0 mi NNE 15.0 mph - N/A   Clear
6:53 PM 43.0 °F 35.1 °F 30.9 °F 62% 30.29 in 10.0 mi North 17.3 mph 23.0 mph N/A   Clear
7:53 PM 45.0 °F 38.2 °F 30.0 °F 56% 30.32 in 10.0 mi NNE 15.0 mph 23.0 mph N/A   Clear
8:53 PM 45.0 °F 38.5 °F 30.0 °F 56% 30.35 in 10.0 mi NNE 13.8 mph - N/A   Partly Cloudy
9:53 PM 45.0 °F 38.9 °F 28.9 °F 53% 30.36 in 10.0 mi NNE 12.7 mph - N/A   Overcast
10:53 PM 44.1 °F 37.7 °F 28.0 °F 53% 30.38 in 10.0 mi NNE 12.7 mph - N/A   Overcast
11:53 PM 44.1 °F 38.1 °F 28.0 °F 53% 30.37 in 10.0 mi North 11.5 mph - N/A   Overcast